GFSMA_prec_radar_363.txt.gz
Reflectivity
-20 -20 -20 -20 -20 -20 -20 -20 -20 -20 -20 -20 -20 -20 -20 -20 -20 -20 -20 -14 16 15 18 18 -20 14 -19 5 7 -20 -20 -20 -20 -20 -20 -20 -20 -20 -13 -20 -20 -20 -20
-20 -20 -20 -20 -20 -20 -20 -20 -20 -20 -20 -20 -20 -20 -20 -20 -20 -20 -20 -14 3 11 10 17 -20 -20 13 11 -20 -6 -19 -20 -20 -20 -20 -3 -20 -20 -20 -20 -20 -20 -20
-20 -20 -20 -20 -20 -20 -20 -20 -20 -20 -20 -20 -20 -20 -20 -20 -20 -20 -20 -20 -20 -16 13 -20 -20 -16 16 18 -13 -20 -20 -20 -20 -20 -20 -20 -20 -20 -20 -20 -20 -20 -20
-20 -20 -20 -20 -20 -20 -20 -20 -20 -20 -20 -20 -20 -20 -20 -20 -20 -20 -20 -20 -20 -20 -20 -20 -18 -20 -20 -20 -20 -20 -20 -20 -20 -13 -20 -20 -20 -20 -20 -20 -20 -20 -20
-20 -20 -20 -20 -20 -20 -20 -20 -20 -20 -20 -20 -20 -20 -20 -20 -20 -20 -20 -20 -20 -20 -20 -20 -20 -20 8 3 -20 -20 -20 -20 -20 -20 -20 -20 -20 -20 -20 -20 -20 -20 -20
-20 -20 -20 -20 -20 -20 -20 -20 -20 -20 -20 -20 -20 -20 -20 -20 -20 -20 -20 -20 -20 -20 -20 -20 -20 -20 -20 -20 -20 -20 -14 -20 -20 -20 -20 -20 -20 -20 -20 -20 -20 -20 -20
-20 -20 -20 -12 -20 -20 -20 -20 -20 -20 -20 -20 -20 -20 -20 -20 -20 -20 -20 -20 -20 -20 -20 -20 -20 -20 -20 -20 -20 -20 -20 -20 -20 -20 -20 -20 -20 -20 -20 -20 -20 -20 -20
-20 -20 -20 -20 -20 -20 -20 -20 -20 -20 -20 -20 -20 -20 -20 -20 -20 -20 -20 -20 -20 -20 -20 -20 -20 -20 -20 -20 -20 -20 -20 -20 -20 -20 -20 -20 -20 -20 -20 -20 -20 -20 -20
-20 -20 -20 -20 -20 -20 -20 -20 -20 -20 -20 -20 -20 -20 -20 -20 -20 -20 -20 -20 -20 -20 -20 -20 -20 -20 -20 -20 -20 -20 -20 -20 -20 -20 -20 -20 -20 -20 -20 -20 -20 -20 -20
-20 -20 -20 -20 -20 -20 -20 -20 -20 -20 -20 -20 -20 -20 -20 -20 -20 -20 -20 -20 -20 -20 -20 -20 -20 -20 -20 -20 -20 -20 -20 -20 -20 -20 -20 -20 -20 -20 -20 -20 -20 -20 -20
-20 -20 -20 -20 -20 -20 -20 -20 -20 -20 -20 -20 -20 -20 -20 -20 -20 -20 -20 -20 -20 -20 -20 -20 -20 -20 -20 -20 -20 -20 -20 -20 -20 -20 -20 -20 -20 -20 -20 -20 -20 -20 -20
-20 -20 -12 0 -20 -20 -20 -20 -20 -20 -20 -20 -20 -20 -20 -20 -20 -20 -20 -20 -20 -20 -20 -20 -20 -20 -20 -20 -20 -20 -20 -20 -20 -20 -20 -20 -20 -20 -20 -20 -20 -20 -20
-16 -20 -14 -4 -18 -20 -20 -20 -20 -20 -20 -20 -20 -20 -20 -20 -20 -20 -20 -20 -20 -20 -20 -20 -20 -20 -20 -20 -20 -20 -20 -20 -20 -20 -20 -20 -20 -20 -20 -20 -20 -20 -20
-10 -20 -10 -18 -4 -20 -20 -20 -20 -20 -20 -20 -20 -20 -20 -20 -20 -20 -20 -20 -20 -20 -20 -20 -20 -20 -20 -20 -20 -20 -20 -20 -20 -20 -20 -20 -20 -20 -20 -20 -20 -20 -20
-7 7 -20 -20 -20 -20 -20 -19 -20 -9 -11 -20 -20 -20 -5 -20 -20 -20 -20 -20 -20 -20 -20 -20 -20 -20 -20 -20 -20 -20 -20 -20 -20 -20 -20 -20 -20 -20 -20 -20 -20 -20 -20
-20 4 -20 -14 -8 3 -20 -20 -20 -20 -20 -11 -20 -20 -20 -16 -20 -20 -20 -20 -20 -20 -20 -20 -20 -20 -20 -20 -20 -20 -20 -20 -20 -20 -20 -20 -20 -20 -20 -20 -20 -20 -20
-20 -18 -6 -20 24 1 -20 -18 -20 -20 -20 -17 -11 -7 -20 -14 -20 -20 -20 -20 -20 -20 -20 -20 -20 -20 -20 -20 -20 -20 -20 -20 -20 -20 -20 -20 -20 -20 -20 -20 -20 -20 -20
-20 16 8 4 24 13 16 -7 -20 -20 -20 -20 2 -17 7 -12 -5 -20 -20 -20 -20 -20 -14 -18 -20 -20 -20 -20 -20 -20 -20 -20 -20 -20 -20 -20 -20 -20 -20 -20 -20 -20 -20
-19 -18 17 -12 -5 -20 -20 3 -0 18 -20 -20 -20 -20 -20 -20 19 20 5 11 2 -20 -20 -20 -13 -7 -20 -20 -20 -20 -20 -20 -20 -20 -20 -20 -20 -20 -20 -20 -20 -20 -20
-16 -15 -20 16 -16 -20 -20 3 -17 -20 -20 16 -20 -20 -20 -20 -20 19 17 13 20 9 -20 -20 -19 -8 4 -8 -20 -20 -20 -20 -20 -20 -20 -20 -20 -20 -20 -20 -20 -20 -20
-20 -20 -20 -20 14 -20 -20 -20 -10 -20 13 2 -18 3 -10 -1 13 5 17 17 17 9 -4 -20 -20 -20 -20 -5 -20 -20 -20 -20 -20 -20 -20 -20 -20 -20 -20 -20 -20 -20 -20
-20 -4 7 -5 -6 -20 -20 -20 -20 -20 -2 17 -3 -8 10 8 4 8 -10 19 5 18 4 -5 -1 -19 -20 -19 -20 -20 -20 -20 -20 -20 -20 -20 -20 -20 -20 -20 -20 -20 -20
10 -20 -13 8 10 1 -13 -20 -20 -6 -6 23 8 -20 -20 -20 -20 -15 10 3 21 12 -6 -9 -18 3 2 -20 -20 -9 -20 -20 -20 -20 -20 -20 -20 -20 -20 -20 -20 -20 -20
16 13 15 13 11 4 -1 -11 -17 30 27 27 5 -20 -20 -20 -20 -15 4 -2 -10 29 28 -7 7 -18 7 -2 -20 -20 -20 -20 -20 -20 -20 -20 -20 -20 -20 -20 -20 -20 -20
-13 12 13 15 -20 -20 -20 -5 26 18 29 29 27 -20 -20 -20 -20 -20 -19 -4 -11 3 21 24 -3 23 -9 5 -20 -20 -11 -8 -20 -20 -20 -20 -20 -20 -20 -20 -20 -20 -20
2 -20 -20 -1 -20 -17 -12 -1 9 26 25 28 19 -20 8 6 6 -20 -14 -20 -20 -15 -6 19 24 17 25 9 -11 -20 -20 -20 -20 -20 -20 -20 -20 -20 -20 -20 -19 -15 -20

GFSMA_prec_radar_369.txt.gz
Reflectivity
-20 -20 -20 -20 -20 -20 -20 -20 -20 -20 -20 -20 -20 -20 -20 -20 -20 -20 -20 4 -20 -20 15 -19 10 -20 5 -1 17 3 -12 -20 -20 -6 -11 -3 -20 -20 -20 -20 -20 -20 -20
-20 -20 -20 -20 -20 -20 -20 -20 -20 -20 -20 -20 -20 -20 -20 -20 -20 -20 -20 -9 10 -20 -17 9 -20 13 -20 -20 -2 -18 13 -20 -20 -20 -20 -20 -20 -20 -20 -20 -20 -20 -20
-20 -20 -20 -20 -20 -20 -20 -20 -20 -20 -20 -20 -20 -20 -20 -20 -20 -20 -20 -20 -20 -20 -20 -15 8 -20 -20 -20 -20 -19 9 -20 -20 -20 -20 -20 -20 -20 -20 -20 -20 -20 -20
-20 -20 -20 -20 -20 -20 -20 -20 -20 -20 -20 -20 -20 -20 -20 -20 -20 -20 -20 -20 -20 -20 -20 -20 5 10 -20 -20 -20 -20 -13 -19 -20 -20 -20 -20 -20 -20 -20 -20 -20 -20 -20
-20 -20 -20 -20 -20 -20 -20 -20 -20 -20 -20 -20 -20 -20 -20 -20 -20 -20 -20 -20 -20 -20 -20 -20 -20 -18 -20 -20 -20 -20 -17 -20 -4 -20 -20 -20 -20 -20 -20 -20 -20 -20 -20
-20 -20 -20 -20 -20 -20 -20 -20 -20 -20 -20 -20 -20 -20 -20 -20 -20 -20 -20 -20 -20 -20 -20 -20 -20 -20 -20 -20 -20 -20 -20 -20 -20 -20 -20 -20 -20 -20 -20 -20 -20 -20 -20
-20 -20 -20 -20 -20 -20 -20 -20 -20 -20 -20 -20 -20 -20 -20 -20 -20 -20 -20 -20 -20 -20 -20 -20 -20 -20 -20 -20 -20 -20 -20 -20 -20 -20 -20 -20 -20 -20 -20 -20 -20 -20 -20
-20 -20 -20 -20 -20 -20 -20 -20 -20 -20 -20 -20 -20 -20 -20 -20 -20 -20 -20 -20 -20 -20 -20 -20 -20 -20 -20 -20 -20 -20 -20 -20 -20 -20 -20 -20 -20 -20 -20 -20 -20 -20 -20
-20 -20 -20 -20 -20 -20 -20 -20 -20 -20 -20 -20 -20 -20 -20 -20 -20 -20 -20 -20 -20 -20 -20 -20 -20 -20 -20 -20 -20 -20 -20 -20 -20 -20 -20 -20 -20 -20 -20 -20 -20 -20 -20
-17 -18 -20 -20 -20 -20 -20 -20 -20 -20 -20 -20 -20 -20 -20 -20 -20 -20 -20 -20 -20 -20 -20 -20 -20 -20 -20 -20 -20 -20 -20 -20 -20 -20 -20 -20 -20 -20 -20 -20 -20 -20 -20
17 12 6 -19 -20 -20 -20 -20 -20 -19 -8 -20 -20 -20 -20 -20 -20 -20 -20 -20 -20 -20 -20 -20 -20 -20 -20 -20 -20 -20 -20 -20 -20 -20 -20 -20 -20 -20 -20 -20 -20 -20 -20
2 -14 -20 -20 -20 -20 -20 -20 -20 -20 -16 -20 -20 -8 -15 -20 -20 -20 -20 -20 -20 -20 -20 -20 -20 -20 -20 -20 -20 -20 -20 -20 -20 -20 -20 -20 -20 -20 -20 -20 -20 -20 -20
-20 -20 -20 -20 -20 -20 -20 -20 -20 -20 -20 -20 -20 -20 -0 -0 -20 -20 -20 -20 -20 -20 -20 -20 -20 -20 -20 -20 -20 -20 -20 -20 -20 -20 -20 -20 -20 -20 -20 -20 -20 -20 -20
-20 -20 -20 -20 -20 -20 -20 -20 -20 -20 -20 -20 -20 -20 -20 -19 -15 -20 -20 -20 -20 -20 -20 -20 -20 -20 -20 -20 -20 -20 -20 -20 -20 -20 -20 -20 -20 -20 -20 -20 -20 -20 -20
-18 -20 -12 -20 -3 25 18 -7 -20 -20 -20 -20 -20 -19 -20 -20 2 -17 -19 -20 -20 -12 -20 -10 -20 -20 -20 -20 -20 -20 -20 -20 -20 -20 -20 -20 -20 -20 -20 -20 -20 -20 -20
28 -4 -20 -20 -20 -2 25 2 13 -4 -20 -20 -20 -7 0 -20 -20 -4 8 18 7 -18 -14 15 -18 -20 -20 -20 1 -19 -20 -20 -20 -20 -20 -20 -20 -20 -20 -20 -20 -20 -20
20 26 14 -14 -1 2 -6 -20 -20 6 -20 9 -18 -18 -20 -20 -20 -20 -1 20 1 4 -20 10 14 -20 -20 -20 -20 -20 -20 -20 -6 -15 -20 -20 -20 -20 -20 -20 -20 -20 -20
11 19 15 1 3 12 22 19 1 9 10 2 -20 6 4 25 9 -20 -14 -20 -20 24 39 -2 4 29 26 19 -3 -20 3 -1 -20 -20 -20 -20 -20 -20 -20 -20 -20 -20 -20
-1 13 18 -19 26 19 27 15 13 19 17 -20 -20 -19 14 20 13 7 -4 -16 -20 -20 3 14 4 11 16 25 33 6 -7 15 -12 -20 -20 -20 -13 -20 -20 -20 -20 -20 -20
-15 -12 -20 -20 -20 4 -8 0 19 18 13 12 17 -5 1 20 14 3 -1 5 17 3 -15 -14 -20 -12 -13 1 14 -18 14 24 10 -20 -20 -20 -20 -20 -11 -11 -13 -20 -20
-16 7 3 -20 -20 -15 -18 -5 -1 -14 15 17 18 21 -4 -20 -20 -1 18 5 17 24 21 -20 -20 -20 -13 -18 -1 7 17 24 14 -16 -20 -20 -20 -20 -20 -17 -18 -20 -17
-20 -20 4 6 20 21 -20 10 -2 -19 12 12 15 -20 23 17 -8 9 21 13 29 16 21 -5 -10 -20 -20 -20 -20 1 20 12 11 17 24 4 -20 -20 -20 -18 -20 -20 -20
-20 -20 -20 -20 -14 -14 -13 -12 12 -19 -13 -20 -20 -20 -20 -17 21 24 6 3 21 16 15 -2 -8 -11 2 -0 -5 -7 13 38 12 25 28 9 -17 -9 -2 -13 -20 -20 -20
-20 -20 -20 -20 -20 -11 8 14 18 -8 -16 -2 -20 -13 13 -18 -4 17 21 18 21 17 31 18 21 -19 -18 -6 19 -1 6 8 10 10 -16 -16 -3 2 7 15 -7 -20 -20
-20 -19 13 -0 -20 -20 20 17 13 28 11 -20 -20 -13 0 4 21 19 12 16 -7 16 16 38 37 22 -3 14 16 11 17 23 11 17 9 35 16 7 31 28 14 15 2
10 13 9 21 26 18 21 12 4 -20 -20 12 12 -4 -3 14 21 8 15 14 10 11 2 29 33 35 25 17 10 21 19 28 10 8 1 -12 2 -6 -2 26 34 23 11

GFSMA_prec_radar_375.txt.gz
Reflectivity
-20 -20 -20 -20 -20 -20 -20 -20 -20 -20 -20 -20 -20 -20 -20 -20 -20 -20 -20 8 11 10 8 -20 12 -16 -20 -20 -20 -12 -20 -20 -20 -20 -20 -20 -20 -20 -20 -20 -20 -20 -20
-20 -20 -20 -20 -20 -20 -20 -20 -20 -20 -20 -20 -20 -20 -20 -20 -20 -20 -20 -14 13 13 -6 -20 14 -13 5 -20 -20 -20 -20 -20 -20 -20 -20 -20 -20 -20 -20 -20 -20 -20 -20
-20 -20 -20 -20 -20 -20 -20 -20 -20 -20 -20 -20 -20 -20 -20 -20 -20 -20 -20 -20 -20 10 9 -16 -7 -20 -20 -20 -20 -20 -20 -20 -20 -20 -20 -20 -20 -20 -20 -20 -20 -20 -20
-20 -20 -20 -20 -20 -20 -20 -20 -20 -20 -20 -20 -20 -20 -20 -20 -20 -20 -20 -20 -20 -20 -20 -20 -2 -10 -20 -20 -20 -20 -20 -20 -20 -20 -20 -20 -20 -20 -20 -20 -20 -20 -20
-20 -20 -20 -20 -20 -20 -20 -20 -20 -20 -20 -20 -20 -20 -20 -20 -20 -20 -20 -20 -20 -20 -20 -20 -20 -20 -20 -20 -20 -20 -20 -20 -20 -20 -20 -20 -20 -20 -20 -20 -20 -20 -20
-20 -20 -20 -20 -20 -20 -20 -20 -20 -20 -20 -20 -20 -20 -20 -20 -20 -20 -20 -20 -20 -20 -20 -20 -20 -20 -20 -20 -20 -20 -2 7 -20 -20 -20 -20 -20 -20 -20 -20 -20 -20 -20
-20 -20 -20 -20 -20 -20 -20 -20 -20 -20 -20 -20 -20 -20 -20 -20 -20 -20 -20 -20 -20 -20 -20 -20 -20 -20 -20 -20 -20 -20 -20 -20 -20 -20 -20 -20 -20 -20 -20 -20 -20 -20 -20
-20 -20 -20 -20 -20 -20 -20 -20 -20 -20 -20 -20 -20 -20 -20 -20 -20 -20 -20 -20 -20 -20 -20 -20 -20 -20 -20 -20 -20 -20 -20 -20 -2 -20 -20 -20 -20 -20 -20 -20 -20 -20 -20
-20 -20 -20 -20 -20 -20 -20 -20 -20 -20 -20 -20 -20 -20 -20 -20 -20 -20 -20 -20 -20 -20 -20 -20 -20 -20 -20 -20 -20 -20 -20 -20 -20 -20 -10 -20 -20 -20 -15 -20 -20 -20 -20
-20 -20 -20 -20 -20 -20 -20 -20 -20 -20 -20 -20 -20 -20 -20 -20 -20 -20 -20 -20 -20 -20 -20 -20 -20 -20 -20 -20 -20 -20 -20 -20 -20 -20 -20 -5 -10 -20 -1 -20 -20 -20 -20
-20 -20 -20 -20 -20 -20 -20 -20 -20 -20 -20 -20 -20 -20 -20 -20 -20 -20 -20 -20 -20 -20 -20 -20 -20 -20 -20 -20 -20 -20 -20 -20 -20 -20 -20 -20 -20 -20 -20 -18 -20 -20 -20
-20 -20 -20 -14 -18 -20 -20 -20 -20 -20 -20 -20 -5 -6 -14 -20 -20 -20 -20 -20 -20 -20 -20 -20 -20 -20 -20 -20 -20 -20 -20 -20 -20 -20 -20 -20 -20 -20 -20 -20 -20 -20 -20
-20 -16 -9 -4 15 -15 -18 -20 -20 -20 -20 -20 -20 -20 -20 -20 -20 -20 -19 -20 -20 -4 -11 -20 -20 -20 -20 -20 -20 -20 -20 -20 -20 -20 -20 -20 -20 -20 -20 -20 -20 -20 -20
15 -13 30 26 24 25 -20 -20 -20 -20 -20 -20 -20 -20 -20 -20 -20 -20 -20 -20 -20 -19 -11 -19 -20 -20 -20 -20 -6 -20 -20 -20 -20 -20 -20 -20 -20 -20 -20 -20 -20 -20 -20
24 7 26 22 28 24 26 21 -19 -20 -20 -20 -20 -20 -20 -20 -20 -20 -20 -20 -20 -18 -20 -20 -20 -18 -17 -18 -12 -20 -20 -16 -13 -20 -20 -20 -16 -20 -20 -20 -20 -20 -20
43 50 33 30 33 33 26 7 5 -17 -20 -20 -20 -20 -20 -20 -20 -20 -20 -20 -20 -20 2 10 4 -12 -20 -3 22 25 -15 11 11 -13 -18 -20 -20 -20 -20 -20 -20 -20 -20
36 31 37 48 37 45 27 24 18 -2 -13 -20 -20 -20 -20 5 -20 -4 -3 -15 -4 -12 -8 -8 8 -12 -20 -10 -20 -20 -19 -20 -6 15 19 11 3 -17 -20 -20 -20 -20 -20
21 23 33 17 20 33 45 30 23 23 -20 -20 -20 -20 -20 10 21 21 19 -20 -20 -20 5 -17 24 31 -17 4 -20 -20 -20 -20 -20 -18 -20 -13 7 -20 -20 -20 -20 -20 -20
16 7 4 21 26 23 26 27 26 21 3 -8 -17 -20 -20 0 -20 -13 -20 -15 -9 -20 -20 -19 16 7 -15 -20 -20 -20 -15 -20 -18 -6 -20 -20 -20 -6 8 -16 -20 -20 -20
1 10 13 21 10 3 18 -2 3 -10 -5 -20 -8 2 -1 -12 1 11 8 -16 -20 -20 -20 -20 -20 -13 -19 -20 -20 -16 8 32 6 -2 -20 -6 3 1 -13 -20 -20 -17 18
-20 -20 -20 -14 13 15 13 14 7 -11 16 18 17 6 -17 3 13 4 1 -14 2 -20 -20 -20 -10 -4 -0 -2 -12 -19 -1 25 16 -20 23 22 -2 -16 -2 9 4 6 26
-20 -20 -20 -20 -20 -12 15 16 8 10 15 9 -1 -9 3 -20 -7 -19 -12 4 11 8 9 5 20 8 -7 -13 -15 7 -20 -20 -20 -6 12 -20 -17 -20 1 -20 -20 -20 19
-20 -20 -20 -20 -20 -20 -20 -20 -9 -15 -18 -5 8 13 11 1 14 -7 1 -1 8 -6 -2 -5 9 21 25 20 11 27 23 3 5 -13 -13 -17 -18 -18 -11 -16 -19 -20 -14
-1 -20 -20 -20 -20 -19 -16 -20 -20 -20 -4 6 -12 1 9 9 14 10 15 14 8 -2 -18 -18 -2 0 -3 11 7 -4 -0 5 -10 13 15 4 -20 -20 -8 -18 -20 -20 -9
-15 4 -18 -20 -20 -20 5 -16 -20 -20 -20 3 2 1 4 19 24 9 -9 -20 -17 -1 23 19 5 1 -13 -20 -20 14 15 13 16 8 -3 20 -3 1 -15 -11 -6 -20 -20
0 -20 -20 -17 8 -20 12 -16 -20 -20 -20 -20 -14 9 20 11 15 13 -7 -20 -20 -19 -20 -20 -20 7 12 -4 1 2 3 27 -5 -8 1 -4 0 4 -15 -20 -20 -10 -15

GFSMA_prec_radar_378.txt.gz
Reflectivity
-20 -20 -20 -20 -20 -20 -20 -20 -20 -20 -20 -20 -20 -20 -20 -20 -20 -20 -20 -14 11 -9 8 -20 1 -14 -8 -20 -11 -20 -20 -20 -20 -20 -20 -20 -20 -20 -20 -20 -20 -20 -20
-13 -20 -20 -20 -20 -20 -20 -20 -20 -20 -20 -20 -20 -20 -20 -20 -20 -20 -20 -20 -20 12 -20 4 -20 -10 -11 -20 -20 -20 -20 -20 -20 -20 -20 -20 -20 -20 -20 -20 -20 -20 -20
-20 -15 -20 -20 -20 -20 -20 -20 -20 -20 -20 -20 -20 -20 -20 -20 -20 -20 -20 -20 -20 -20 -20 -20 -20 -19 0 5 -20 -20 -20 -20 -20 -20 -20 -20 -20 -20 -20 -20 -20 -20 -20
-20 -20 -20 -20 -20 -20 -20 -20 -20 -20 -20 -20 -20 -20 -20 -20 -20 -20 -20 -20 -20 -20 -20 -20 -20 -20 -20 -14 -16 -20 -20 -20 -20 -20 -20 -20 -20 -20 -20 -20 -20 -20 -20
-10 -20 -20 -20 -20 -20 -20 -20 -20 -20 -20 -20 -20 -20 -20 -20 -20 -20 -20 -20 -20 -20 -20 -20 -20 -20 -20 -20 -20 -20 -20 -20 -20 -12 -20 -20 -20 -20 -20 -20 -20 -20 -20
-3 -20 -20 -20 -20 -20 -20 -20 -20 -20 -20 -20 -20 -20 -20 -20 -20 -20 -20 -20 -20 -20 -20 -20 -20 -20 -20 -20 -20 -20 -0 9 -10 -20 -20 -20 -20 -20 -20 -20 -20 -20 -20
-20 -20 -20 -20 -20 -20 -20 -20 -20 -20 -20 -20 -20 -20 -20 -20 -20 -20 -20 -20 -20 -20 -20 -20 -20 -20 -20 -20 -20 -20 -20 -20 2 -20 -20 -20 -20 -20 -20 -20 -20 -20 -20
-20 -20 -20 -20 -20 -20 -20 -20 -20 -20 -20 -20 -20 -20 -20 -20 -20 -20 -20 -20 -20 -20 -20 -20 -20 -20 -20 -20 -20 -20 -20 -20 -20 -17 -14 -20 -20 -20 -20 -20 -20 -20 -20
-20 -20 -20 -20 -20 -20 -20 -20 -20 -20 -20 -20 -20 -20 -20 -20 -20 -20 -20 -20 -20 -20 -20 -20 -20 -20 -20 -20 -20 -20 -20 -20 -20 -20 -20 -20 -20 -20 -20 -20 -20 -20 -20
-14 -20 -20 -20 -20 -20 -20 -20 -20 -20 -20 -20 -20 -20 -20 -20 -20 -20 -20 -19 -20 -20 -20 -20 -20 -20 -20 -20 -20 -20 -20 -20 -20 -20 -20 -20 -19 -12 -20 -20 8 -17 -20
3 -19 -20 -20 -20 -20 -20 -20 -20 -20 -20 -20 -20 -20 -20 -20 -20 -20 -20 -20 -20 -20 -20 -20 -20 -20 -20 -20 -20 -20 -20 -20 -20 -20 -20 -20 -20 -20 -2 -19 -20 -9 7
15 1 -4 -17 -20 -20 -20 -20 -20 -20 -20 -20 -20 -20 -20 -20 -20 -20 -20 -20 -20 -20 -20 -20 -20 -20 -20 -20 -20 -20 -20 -20 -20 -20 -20 -20 -20 -20 -20 -20 -20 -20 -20
14 -3 13 -20 -3 14 12 -20 -20 -20 -20 -20 -18 -5 -7 9 -20 -20 -20 -20 -20 -20 -20 -20 -15 -7 -20 -20 -20 -20 -20 -20 -20 -20 -20 -20 -20 -20 -20 -20 -20 -20 -20
10 13 10 21 -3 8 -6 10 -11 9 -15 -11 -8 -20 -20 -20 -20 -20 -20 -20 -20 -20 -20 -20 -20 -20 -20 -20 -1 -2 -20 -20 -20 -20 -20 -20 -20 -20 -20 -20 -19 -20 -20
11 23 29 5 24 -13 6 24 8 -18 -4 -20 -20 -20 -13 -19 -20 -20 -20 -20 -20 -20 -20 -20 -20 -20 -20 -20 -20 -20 -20 -1 6 -20 -20 -20 -20 -20 -19 -20 -20 -20 -20
33 35 42 33 22 25 37 35 35 31 18 -6 -20 -20 -20 -20 -20 -20 -20 -20 -20 -20 -20 -20 -20 -20 -20 -20 -20 -20 -20 -20 -20 -20 -20 -20 -20 -20 3 -20 -20 -20 -20
31 20 32 37 37 23 31 38 39 43 35 8 11 -7 -18 -20 -20 -20 -20 13 -19 -20 -15 -20 -20 -20 -20 -20 -11 31 -20 -20 -20 -20 -20 -20 -20 -16 -20 -20 -20 -20 -20
19 20 12 22 31 37 35 35 37 33 35 31 16 7 -18 -14 -1 -14 -1 -11 -20 -20 -20 -20 -20 -20 -20 -20 -18 -19 -20 -20 -20 -20 -20 -20 -20 -20 -20 -20 -20 -20 -20
-20 -18 7 11 31 30 29 29 28 34 40 36 38 29 39 10 -3 -5 2 1 3 -6 2 -20 -20 -20 -20 -20 -6 -20 -7 5 -20 -20 -9 5 6 -20 -20 -20 -9 -19 -20
-20 0 2 22 20 27 18 27 18 34 37 34 34 21 4 -5 -13 1 3 -5 4 10 -12 -3 2 -17 -20 -20 -12 -20 -20 -11 -20 -20 -20 -20 -20 -20 -20 -20 -20 -10 -20
-20 -20 -16 -20 -20 -7 13 29 5 14 20 9 2 4 2 13 18 12 12 10 15 9 1 10 15 9 6 0 -19 -20 -12 -19 -20 2 -1 -20 -20 -20 -20 -20 -20 -20 -20
-20 -20 -20 -20 -20 -19 18 18 -1 25 8 18 -2 8 13 17 13 19 2 -17 3 16 10 3 9 7 5 13 -20 -20 -20 0 -5 -13 -1 1 -20 -20 -17 -20 -20 -20 -20
-20 -20 -20 -20 -20 -20 -20 -20 -19 -20 -20 -15 6 7 4 5 14 14 15 13 19 6 11 -1 -1 -11 7 14 12 15 -9 -9 -3 -20 0 -20 -19 -1 -20 -20 -20 -20 -20
-18 -20 -20 -20 -20 -20 -20 -20 -20 -20 -20 -20 -20 2 7 -3 -13 -10 -20 -3 18 15 6 -7 10 10 -1 10 18 18 5 12 1 -2 19 19 0 -20 -20 -20 -9 -20 -20
-19 -11 -20 -20 -20 -20 -20 -20 -10 -20 0 -15 -20 -20 -20 -20 16 -4 -20 -20 -20 -20 10 10 -6 -15 7 20 22 25 14 5 -0 0 -15 2 -13 -4 -20 -20 -20 4 -20
-3 -20 -20 -20 -20 -20 -5 -20 -20 -20 -20 -20 -20 -20 4 -5 -20 -20 1 -9 -20 -18 -19 6 -20 3 -20 -20 -0 -1 -9 10 6 21 -5 12 4 6 9 -7 6 9 6

GFSMA_prec_radar_384.txt.gz
Reflectivity
-20 -20 -20 -20 -20 -20 -20 -20 -20 -20 -20 -20 -20 -20 -20 -20 -20 -20 -20 -13 -20 -20 -20 -20 -20 -20 -20 -20 -20 -20 -20 -20 -20 -20 -20 -20 -20 -20 -20 -20 -20 -20 -20
-20 -20 -9 -20 -20 -20 -20 -20 -20 -20 -20 -20 -20 -20 -20 -20 -20 -20 -20 -20 -20 -20 -20 -20 -20 -20 -20 -20 -20 -20 -20 -20 -20 -20 -20 -20 -20 -20 -20 -20 -20 -20 -20
-20 -20 -20 -20 -20 -20 -20 -20 -20 -20 -20 -20 -20 -20 -20 -20 -20 -20 -20 -20 -20 -20 -20 -20 -20 -20 -20 -20 -20 -20 -20 -20 -20 -20 -20 -20 -20 -20 -20 -20 -20 -20 -20
-20 -20 -20 -20 -20 -20 -20 -20 -10 -17 -20 -20 -20 -20 -20 -20 -20 -20 -20 -20 -20 -20 -20 -20 -20 -20 -20 -20 -20 -20 -20 -20 -20 -20 -20 -20 -20 -20 -20 -20 -20 -20 -20
-20 -20 -20 -20 -20 -20 -20 -20 -20 -17 -20 -20 -20 -20 -20 -20 -20 -20 -20 -20 -20 -20 -20 -20 -20 -20 -20 -20 -20 -20 -20 -20 -20 -20 -20 -20 -20 -20 -20 -20 -20 -20 -20
-20 -20 -20 -20 -20 -20 -20 -20 -9 -15 -20 -20 -20 -20 -20 -20 -20 -20 -20 -20 -20 -20 -20 -20 -20 -20 -20 -20 -20 -20 -20 -20 -20 -20 -20 -20 -20 -20 -20 -20 -20 -20 -20
-20 -20 -20 6 -20 -20 -20 -20 -20 -20 -20 -20 -20 -20 -20 -20 -20 -20 -20 -20 -20 -20 -20 -20 -20 -20 -20 -20 -20 -20 -20 -20 -20 -20 -20 -20 -20 -20 -20 -20 -20 -20 -20
-20 -20 -20 -20 -20 -20 -20 -20 -20 -20 -20 -20 -20 -20 -20 -20 -20 -20 -20 -20 -20 -20 -20 -20 -20 -20 -20 -20 -20 -20 -20 -20 -20 -20 -20 -20 -20 -20 -20 -20 -20 -20 -20
7 -17 -20 -20 -20 -20 -20 -20 -20 -20 -20 -20 -20 -20 -20 -20 -20 -20 -20 -20 -20 -20 -20 -20 -20 -4 -19 -20 -20 -20 -20 -20 -20 -20 -20 -20 -20 -20 -20 -20 -20 -5 -12
-16 -20 -20 -20 -20 -20 -20 -20 -13 -14 -13 -20 -20 -20 -20 -20 -20 -20 -20 -20 -20 -20 -20 -20 -20 -20 -20 -20 -20 -20 -20 -20 -20 -20 -20 -20 -20 -20 -20 -20 -20 -20 4
-20 -19 -14 -2 -20 -20 -20 -11 -20 -20 -20 -20 -20 -20 -20 -20 -20 -20 -20 -20 -20 -20 -20 -20 -20 -20 -20 -20 -20 -20 -20 -20 -20 -20 -20 -20 -20 -20 -20 -20 -20 -9 -20
-20 3 18 -20 -20 -20 -20 -20 -20 -20 -20 -20 -20 -20 -20 -20 -20 -20 -20 -20 -20 -20 -20 -20 -20 -20 -20 -20 -20 -20 -20 -20 -20 -20 -20 -20 -20 -20 -20 -20 -20 -20 -8
-6 -14 15 8 -9 -10 -16 -20 -20 -20 -20 -20 -20 -20 -20 -20 -20 -20 -20 -16 -20 -20 -20 -20 -18 -8 -20 -20 -20 -20 -20 -20 -20 -20 -20 -20 -20 -20 -20 -20 -20 -20 -20
21 36 24 -9 35 -18 18 -20 -20 -20 -20 -20 -20 -20 -20 -20 -20 -20 -20 -20 -20 -20 -20 -20 -20 -20 -20 -20 -20 -20 -20 -20 -20 -20 -20 -20 -20 -20 -20 -20 -20 -20 -20
31 24 5 16 13 35 1 -15 8 -1 -2 4 7 -20 -20 -20 -20 -20 -20 -20 -20 -20 -20 -20 -20 -20 -20 -20 -20 -20 -20 -19 -8 -20 -20 -20 -20 -20 -20 -20 -20 -20 -20
28 -20 7 3 -20 16 31 26 23 21 27 28 26 13 18 25 31 21 -13 -14 -1 -15 -20 -20 -20 -20 -20 4 -13 -14 -20 -20 -20 -20 -20 -20 -20 -20 -20 -20 -20 -20 -20
7 -20 -11 -4 37 38 43 31 35 27 18 41 37 27 32 34 33 28 25 22 -0 -3 -7 -9 -20 -20 -20 -20 -20 26 24 21 -4 -20 -20 -20 -20 -20 -20 -20 -20 -20 -20
-20 14 11 -12 26 23 21 26 7 6 -4 11 18 22 34 31 27 33 26 26 21 2 23 26 -20 -20 -20 -6 9 13 -2 15 26 20 9 -20 -20 -20 -20 -20 -20 -20 -20
19 5 2 -20 -13 -3 5 -15 -20 10 4 2 9 22 20 30 21 18 36 39 26 5 20 40 30 30 -6 -5 0 4 -4 -20 -16 -10 -20 -20 -20 -20 -20 -20 -20 -20 -20
-20 -20 -20 -20 -20 -20 2 -4 -7 7 6 11 -4 10 22 17 12 26 34 28 29 27 26 27 23 11 -20 -17 -20 10 -11 -20 -20 -20 -20 -20 -20 -20 -20 -20 -20 -20 -20
-20 -20 -20 -20 8 -20 -18 -20 -20 -2 -8 13 -20 10 -20 8 5 14 28 26 25 16 19 15 13 18 22 26 25 31 9 8 8 8 -11 8 -18 -9 -20 -20 -20 -20 -20
-20 25 -9 -20 -20 -10 12 8 14 13 -3 6 5 18 29 24 13 13 15 20 20 17 17 7 -20 -2 16 4 6 -20 -1 3 -18 9 -20 -20 -20 -20 -16 -12 -17 -4 11
19 -15 -13 -20 -17 -9 13 9 -7 -15 -5 12 11 13 6 5 9 -17 -1 11 13 6 8 -16 -20 -4 -20 -20 -20 -20 -18 -20 -20 -20 1 -18 -13 -15 -7 -0 7 -11 -19
7 -17 -17 -20 -20 -20 -20 -20 -20 -20 -20 -20 -20 -20 -19 -20 -5 -9 -19 -20 -20 -20 2 6 5 -10 -20 -20 -20 -6 4 9 -1 -12 4 -13 -7 9 -11 -18 -14 -19 -9
-8 -20 -20 -20 -20 -20 -20 -20 -20 -20 -14 -17 -1 -20 -20 4 17 11 -18 -20 -20 -20 -20 -20 -20 -20 -20 -20 -20 -20 -20 -20 -20 -20 -20 1 -12 -20 -20 -20 -20 -20 -8
-20 -20 -20 -20 -20 -20 -20 -20 -20 -20 -20 -20 -20 -13 2 -14 -0 -20 -20 -20 -20 -20 -20 -20 -20 -20 -20 -20 -20 -20 -20 -18 -20 -19 -17 1 -18 5 -19 -20 -19 -20 -2